Date,TemperatureHighF,TemperatureAvgF,TemperatureLowF,DewpointHighF,DewpointAvgF,DewpointLowF,HumidityHigh,HumidityAvg,HumidityLow,PressureMaxIn,PressureMinIn,WindSpeedMaxMPH,WindSpeedAvgMPH,GustSpeedMaxMPH,PrecipitationSumIn
2013-2-1,69,54,39,38,32,27,76,47,22,30.34,30.21,6,1,12,0.00
2013-2-2,72,57,43,45,39,35,80,54,31,30.30,30.12,6,1,9,0.00
2013-2-3,71,58,43,50,43,36,89,61,42,30.18,30.04,6,1,14,0.00
2013-2-4,70,56,42,47,40,33,92,60,29,30.13,30.02,7,0,14,0.00
2013-2-5,76,60,44,52,47,41,90,65,40,30.09,29.98,5,0,9,0.00
2013-2-6,79,68,58,63,58,52,87,71,50,30.10,30.01,4,0,9,0.00
2013-2-7,80,73,67,63,61,57,81,68,51,30.07,29.86,15,3,19,0.00
2013-2-8,81,70,61,64,59,54,87,70,44,30.06,29.85,7,1,13,0.00
2013-2-9,75,63,55,56,54,51,91,74,48,30.20,30.05,6,2,12,0.00
2013-2-10,78,67,58,59,56,53,85,70,48,30.26,30.16,9,2,16,0.00
2013-2-11,82,70,58,64,60,56,92,71,48,30.20,30.05,12,2,18,0.00
2013-2-12,84,74,62,67,63,60,93,72,47,30.09,29.91,9,2,16,0.00
2013-2-13,85,73,63,70,66,59,92,79,52,29.95,29.80,9,2,23,0.37
2013-2-14,66,63,57,61,59,55,94,86,72,30.02,29.90,6,0,11,0.18
2013-2-15,69,59,53,57,54,51,95,83,58,30.06,29.94,4,1,8,0.03
2013-2-16,68,58,50,52,44,30,90,64,38,30.11,29.88,12,2,20,0.00
2013-2-17,54,45,37,29,19,11,63,38,19,30.33,30.11,9,2,17,0.00
2013-2-18,68,51,34,46,36,24,83,59,38,30.36,30.20,9,1,17,0.00
2013-2-19,79,64,48,56,51,44,92,66,40,30.21,30.04,12,2,17,0.00
2013-2-20,77,65,60,59,56,53,89,73,54,30.12,30.00,7,1,11,0.00
2013-2-21,83,70,57,65,58,52,87,69,45,30.10,29.98,9,1,10,0.00
2013-2-22,86,74,64,69,65,60,94,77,43,30.07,29.97,11,2,16,0.00
2013-2-23,87,77,70,69,67,63,91,73,48,30.00,29.85,12,3,17,0.00
2013-2-24,76,70,65,71,67,63,93,90,82,29.95,29.85,4,1,10,0.30
2013-2-25,86,72,63,71,65,61,95,83,44,29.91,29.75,10,1,26,0.26
2013-2-26,77,72,66,71,67,60,92,85,73,29.85,29.73,12,3,20,0.04
2013-2-27,77,66,58,62,56,50,90,71,48,29.96,29.85,6,1,12,0.00
2013-2-28,74,62,52,53,49,44,90,64,37,29.98,29.86,6,1,13,0.00